Overview Statistics Trail Chart Weather Telemetry Raw packets
 

This is the latest recevied weather packets stored in our database for station/object W2SBL-1. If no packets are shown the sender has not sent any weather packets the latest 10 day(s).

<< 2 3 4 5 6 7 8 >>
Time Temp. Humidity Pressure Rain* Wind** Luminosity Snow
1788430411 24.44° C 59% 1014.9 hPa - - - -
1788429510 24.44° C 59% 1014.4 hPa - - - -
1788428610 24.44° C 59% 1014.1 hPa - - - -
1788427710 24.44° C 59% 1013.8 hPa - - - -
1788426810 24.44° C 59% 1014 hPa - - - -
1788425910 24.44° C 59% 1014.3 hPa - - - -
1788425010 24.44° C 59% 1014.2 hPa - - - -
1788424110 24.44° C 59% 1014.7 hPa - - - -
1788422310 25° C 58% 1015.4 hPa - - - -
1788418710 25° C 58% 1015 hPa - - - -
1788389007 23.33° C 59% 1019 hPa - - - -
1788388107 23.33° C 59% 1019.2 hPa - - - -
1788385406 23.33° C 59% 1019.3 hPa - - - -
1788382706 23.33° C 60% 1018.6 hPa - - - -
1788380906 24.44° C 59% 1019.6 hPa - - - -
1788371905 28.33° C 56% 1019.7 hPa - - - -
1788367405 27.78° C 57% 1019.6 hPa - - - -
1788364704 29.44° C 54% 1019.8 hPa - - - -
1788358404 27.22° C 53% 1019.8 hPa - - - -
1788355704 25.56° C 54% 1019.7 hPa - - - -
1788336802 22.78° C 59% 1018 hPa - - - -
1788319700 23.33° C 59% 1017.2 hPa - - - -
1788318800 23.33° C 60% 1017.2 hPa - - - -
1788317900 23.33° C 60% 1017.1 hPa - - - -
1788317000 23.33° C 60% 1016.7 hPa - - - -

* Rain since midnight (hover to see other rain measurements)
** Current wind speed in m/s (hover to see current wind gust speed)